Track FENGYUN 1D now! 10-day predictions FENGYUN 1D is classified as:
1 27431U 02024B 22141.93775448 .00000056 00000-0 58224-4 0 9998 2 27431 99.1327 162.1538 0016477 94.2516 266.0537 14.09764446 29890